Time,TemperatureF,DewpointF,PressureIn,WindDirection,WindDirectionDegrees,WindSpeedMPH,WindSpeedGustMPH,Humidity,HourlyPrecipIn,Conditions,Clouds,dailyrainin,SoftwareType,DateUTC
2013-10-06 00:01:00,57.1,54.0,29.67,North,360,2.6,6.0,91,0.00,,,0.00,Rainwise IP-100,2013-10-06 04:01:00,
2013-10-06 00:02:00,57.1,54.0,29.68,North,360,2.6,6.0,91,0.00,,,0.00,Rainwise IP-100,2013-10-06 04:02:00,
2013-10-06 00:04:00,57.2,54.0,29.68,NNW,337,4.0,5.0,91,0.00,,,0.00,Rainwise IP-100,2013-10-06 04:04:00,
2013-10-06 00:06:00,57.2,54.0,29.68,NNW,337,1.6,5.0,91,0.00,,,0.00,Rainwise IP-100,2013-10-06 04:06:00,
2013-10-06 00:12:00,57.2,54.0,29.69,NNW,337,1.2,3.0,91,0.00,,,0.00,Rainwise IP-100,2013-10-06 04:12:00,
2013-10-06 00:17:00,57.1,54.0,29.69,NNW,337,1.4,2.0,91,0.00,,,0.00,Rainwise IP-100,2013-10-06 04:17:00,
2013-10-06 00:22:00,57.1,54.0,29.69,NNW,337,2.1,3.0,91,0.00,,,0.00,Rainwise IP-100,2013-10-06 04:22:00,
2013-10-06 00:27:00,57.1,54.0,29.69,NNE,22,5.4,5.4,91,0.00,,,0.00,Rainwise IP-100,2013-10-06 04:27:00,
2013-10-06 00:32:00,57.0,54.0,29.69,NNW,337,2.6,5.0,91,0.00,,,0.00,Rainwise IP-100,2013-10-06 04:32:00,
2013-10-06 00:37:00,57.0,54.0,29.69,North,360,3.7,5.0,91,0.00,,,0.00,Rainwise IP-100,2013-10-06 04:37:00,
2013-10-06 00:42:00,56.9,54.0,29.70,North,360,3.7,5.0,91,0.00,,,0.00,Rainwise IP-100,2013-10-06 04:42:00,
2013-10-06 00:47:00,57.0,54.0,29.69,NNE,22,2.8,5.0,90,0.00,,,0.00,Rainwise IP-100,2013-10-06 04:47:00,
2013-10-06 00:52:00,57.1,54.0,29.69,NE,45,2.3,3.0,89,0.00,,,0.00,Rainwise IP-100,2013-10-06 04:52:00,
2013-10-06 00:57:00,57.1,54.0,29.70,NE,45,1.6,4.0,89,0.00,,,0.00,Rainwise IP-100,2013-10-06 04:57:00,
2013-10-06 01:02:00,57.0,53.0,29.70,North,360,4.0,4.0,88,0.00,,,0.00,Rainwise IP-100,2013-10-06 05:02:00,
2013-10-06 01:07:00,57.0,53.0,29.69,NNE,22,1.9,5.0,86,0.00,,,0.00,Rainwise IP-100,2013-10-06 05:07:00,
2013-10-06 01:12:00,57.1,52.0,29.70,NNE,22,4.9,5.0,84,0.00,,,0.00,Rainwise IP-100,2013-10-06 05:12:00,
2013-10-06 01:17:00,57.0,51.0,29.70,NNE,22,1.6,5.0,81,0.00,,,0.00,Rainwise IP-100,2013-10-06 05:17:00,
2013-10-06 01:22:00,57.0,51.0,29.70,North,360,3.7,4.0,80,0.00,,,0.00,Rainwise IP-100,2013-10-06 05:22:00,
2013-10-06 01:28:00,56.9,50.0,29.69,NNE,22,4.4,5.0,79,0.00,,,0.00,Rainwise IP-100,2013-10-06 05:28:00,
2013-10-06 01:33:00,56.9,50.0,29.69,North,360,4.7,6.0,77,0.00,,,0.00,Rainwise IP-100,2013-10-06 05:33:00,
2013-10-06 01:38:00,56.8,49.0,29.70,NNE,22,4.9,7.0,77,0.00,,,0.00,Rainwise IP-100,2013-10-06 05:38:00,
2013-10-06 01:43:00,56.7,49.0,29.70,NE,45,4.0,7.0,76,0.00,,,0.00,Rainwise IP-100,2013-10-06 05:43:00,
2013-10-06 01:48:00,56.6,49.0,29.70,NNE,22,2.6,7.0,77,0.00,,,0.00,Rainwise IP-100,2013-10-06 05:48:00,
2013-10-06 01:53:00,56.5,49.0,29.70,NNE,22,3.0,5.0,77,0.00,,,0.00,Rainwise IP-100,2013-10-06 05:53:00,
2013-10-06 01:58:00,56.3,49.0,29.70,ENE,67,4.0,7.0,78,0.00,,,0.00,Rainwise IP-100,2013-10-06 05:58:00,
2013-10-06 02:03:00,56.3,49.0,29.70,NNE,22,2.8,7.0,78,0.00,,,0.00,Rainwise IP-100,2013-10-06 06:03:00,
2013-10-06 02:08:00,56.2,49.0,29.69,ENE,67,5.4,7.0,77,0.00,,,0.00,Rainwise IP-100,2013-10-06 06:08:00,
2013-10-06 02:13:00,56.1,49.0,29.70,NNE,22,2.8,6.0,77,0.00,,,0.00,Rainwise IP-100,2013-10-06 06:13:00,
2013-10-06 02:18:00,56.0,48.0,29.69,North,360,3.5,6.0,76,0.00,,,0.00,Rainwise IP-100,2013-10-06 06:18:00,
2013-10-06 02:23:00,55.9,48.0,29.69,North,360,4.7,6.0,75,0.00,,,0.00,Rainwise IP-100,2013-10-06 06:23:00,
2013-10-06 02:28:00,55.7,48.0,29.69,North,360,4.4,6.0,75,0.00,,,0.00,Rainwise IP-100,2013-10-06 06:28:00,
2013-10-06 02:33:00,55.6,47.0,29.69,North,360,4.4,8.0,74,0.00,,,0.00,Rainwise IP-100,2013-10-06 06:33:00,
2013-10-06 02:38:00,55.5,47.0,29.70,NNW,337,5.6,6.0,73,0.00,,,0.00,Rainwise IP-100,2013-10-06 06:38:00,
2013-10-06 02:44:00,55.4,47.0,29.69,North,360,6.1,9.0,72,0.00,,,0.00,Rainwise IP-100,2013-10-06 06:44:00,
2013-10-06 02:49:00,55.4,46.0,29.69,NE,45,3.3,8.0,71,0.00,,,0.00,Rainwise IP-100,2013-10-06 06:49:00,
2013-10-06 02:54:00,55.4,46.0,29.69,NNW,337,7.0,7.0,71,0.00,,,0.00,Rainwise IP-100,2013-10-06 06:54:00,
2013-10-06 02:59:00,55.4,46.0,29.70,NNE,22,3.7,7.0,71,0.00,,,0.00,Rainwise IP-100,2013-10-06 06:59:00,
2013-10-06 03:04:00,55.3,46.0,29.70,NNE,22,1.9,5.0,71,0.00,,,0.00,Rainwise IP-100,2013-10-06 07:04:00,
2013-10-06 03:09:00,55.2,47.0,29.70,NNE,22,9.3,9.3,72,0.00,,,0.00,Rainwise IP-100,2013-10-06 07:09:00,
2013-10-06 03:14:00,55.2,46.0,29.70,North,360,4.7,9.0,71,0.00,,,0.00,Rainwise IP-100,2013-10-06 07:14:00,
2013-10-06 03:19:00,55.1,46.0,29.70,NNE,22,8.9,9.0,70,0.00,,,0.00,Rainwise IP-100,2013-10-06 07:19:00,
2013-10-06 03:24:00,54.9,46.0,29.70,NNE,22,5.1,8.0,70,0.00,,,0.00,Rainwise IP-100,2013-10-06 07:24:00,
2013-10-06 03:29:00,54.8,45.0,29.70,NNE,22,4.4,9.0,70,0.00,,,0.00,Rainwise IP-100,2013-10-06 07:29:00,
2013-10-06 03:34:00,54.6,45.0,29.70,NNE,22,6.3,8.0,70,0.00,,,0.00,Rainwise IP-100,2013-10-06 07:34:00,
2013-10-06 03:39:00,54.5,45.0,29.69,NE,45,3.5,9.0,70,0.00,,,0.00,Rainwise IP-100,2013-10-06 07:39:00,
2013-10-06 03:44:00,54.5,45.0,29.69,North,360,2.6,8.0,70,0.00,,,0.00,Rainwise IP-100,2013-10-06 07:44:00,
2013-10-06 03:49:00,54.4,45.0,29.69,NNE,22,4.4,7.0,70,0.00,,,0.00,Rainwise IP-100,2013-10-06 07:49:00,
2013-10-06 03:54:00,54.2,44.0,29.69,NW,315,1.9,8.0,69,0.00,,,0.00,Rainwise IP-100,2013-10-06 07:54:00,
2013-10-06 04:00:00,54.1,44.0,29.69,NNW,337,4.4,5.0,69,0.00,,,0.00,Rainwise IP-100,2013-10-06 08:00:00,
2013-10-06 04:05:00,54.0,44.0,29.69,NNE,22,4.7,7.0,69,0.00,,,0.00,Rainwise IP-100,2013-10-06 08:05:00,
2013-10-06 04:10:00,54.0,44.0,29.69,NNE,22,4.2,7.0,68,0.00,,,0.00,Rainwise IP-100,2013-10-06 08:10:00,
2013-10-06 04:15:00,53.9,44.0,29.69,NNE,22,3.0,5.0,68,0.00,,,0.00,Rainwise IP-100,2013-10-06 08:15:00,
2013-10-06 04:20:00,53.9,44.0,29.69,NNE,22,3.0,6.0,68,0.00,,,0.00,Rainwise IP-100,2013-10-06 08:20:00,
2013-10-06 04:25:00,53.9,44.0,29.69,ENE,67,3.5,6.0,68,0.00,,,0.00,Rainwise IP-100,2013-10-06 08:25:00,
2013-10-06 04:30:00,53.9,44.0,29.69,NNE,22,6.3,8.0,68,0.00,,,0.00,Rainwise IP-100,2013-10-06 08:30:00,
2013-10-06 04:35:00,53.8,43.0,29.69,North,360,5.1,8.0,69,0.00,,,0.00,Rainwise IP-100,2013-10-06 08:35:00,
2013-10-06 04:40:00,53.8,43.0,29.70,NE,45,2.1,7.0,68,0.00,,,0.00,Rainwise IP-100,2013-10-06 08:40:00,
2013-10-06 04:45:00,53.7,43.0,29.70,NNE,22,2.8,6.0,68,0.00,,,0.00,Rainwise IP-100,2013-10-06 08:45:00,
2013-10-06 04:50:00,53.7,43.0,29.70,ENE,67,1.6,7.0,68,0.00,,,0.00,Rainwise IP-100,2013-10-06 08:50:00,
2013-10-06 04:55:00,53.7,43.0,29.70,NNE,22,2.8,4.0,68,0.00,,,0.00,Rainwise IP-100,2013-10-06 08:55:00,
2013-10-06 05:00:00,53.7,43.0,29.71,NE,45,3.5,5.0,68,0.00,,,0.00,Rainwise IP-100,2013-10-06 09:00:00,
2013-10-06 05:05:00,53.6,43.0,29.70,ENE,67,2.3,5.0,68,0.00,,,0.00,Rainwise IP-100,2013-10-06 09:05:00,
2013-10-06 05:10:00,53.5,43.0,29.70,NE,45,3.5,5.0,69,0.00,,,0.00,Rainwise IP-100,2013-10-06 09:10:00,
2013-10-06 05:16:00,53.5,44.0,29.71,NE,45,4.4,4.4,70,0.00,,,0.00,Rainwise IP-100,2013-10-06 09:16:00,
2013-10-06 05:21:00,53.5,44.0,29.70,NNE,22,1.2,5.0,70,0.00,,,0.00,Rainwise IP-100,2013-10-06 09:21:00,
2013-10-06 05:26:00,53.4,44.0,29.71,NNE,22,1.2,3.0,70,0.00,,,0.00,Rainwise IP-100,2013-10-06 09:26:00,
2013-10-06 05:31:00,53.3,43.0,29.71,NE,45,1.4,2.0,70,0.00,,,0.00,Rainwise IP-100,2013-10-06 09:31:00,
2013-10-06 05:36:00,53.3,43.0,29.71,NNE,22,1.4,5.0,70,0.00,,,0.00,Rainwise IP-100,2013-10-06 09:36:00,
2013-10-06 05:41:00,53.3,43.0,29.71,North,360,2.6,4.0,69,0.00,,,0.00,Rainwise IP-100,2013-10-06 09:41:00,
2013-10-06 05:46:00,53.3,43.0,29.71,NNE,22,1.2,3.0,69,0.00,,,0.00,Rainwise IP-100,2013-10-06 09:46:00,
2013-10-06 05:51:00,53.2,43.0,29.71,NNE,22,0.0,1.0,70,0.00,,,0.00,Rainwise IP-100,2013-10-06 09:51:00,
2013-10-06 05:56:00,53.2,43.0,29.71,NNE,22,0.0,1.0,70,0.00,,,0.00,Rainwise IP-100,2013-10-06 09:56:00,
2013-10-06 06:01:00,53.1,43.0,29.71,NNE,22,1.6,1.6,71,0.00,,,0.00,Rainwise IP-100,2013-10-06 10:01:00,
2013-10-06 06:06:00,53.0,43.0,29.70,NNE,22,2.3,2.3,71,0.00,,,0.00,Rainwise IP-100,2013-10-06 10:06:00,
2013-10-06 06:11:00,53.0,43.0,29.71,NNW,337,2.3,2.3,71,0.00,,,0.00,Rainwise IP-100,2013-10-06 10:11:00,
2013-10-06 06:16:00,53.0,43.0,29.71,NNW,337,1.9,4.0,71,0.00,,,0.00,Rainwise IP-100,2013-10-06 10:16:00,
2013-10-06 06:21:00,52.9,43.0,29.71,NNW,337,2.6,3.0,71,0.00,,,0.00,Rainwise IP-100,2013-10-06 10:21:00,
2013-10-06 06:26:00,52.9,43.0,29.72,North,360,2.3,5.0,71,0.00,,,0.00,Rainwise IP-100,2013-10-06 10:26:00,
2013-10-06 06:32:00,52.8,44.0,29.72,WNW,292,1.2,2.0,72,0.00,,,0.00,Rainwise IP-100,2013-10-06 10:32:00,
2013-10-06 06:37:00,52.7,44.0,29.72,WNW,292,0.0,1.0,72,0.00,,,0.00,Rainwise IP-100,2013-10-06 10:37:00,
2013-10-06 06:42:00,52.8,44.0,29.72,WNW,292,0.0,0.0,72,0.00,,,0.00,Rainwise IP-100,2013-10-06 10:42:00,
2013-10-06 06:47:00,52.7,45.0,29.72,WNW,292,0.0,1.0,74,0.00,,,0.00,Rainwise IP-100,2013-10-06 10:47:00,
2013-10-06 06:52:00,52.7,45.0,29.72,WNW,292,1.4,1.4,75,0.00,,,0.00,Rainwise IP-100,2013-10-06 10:52:00,
2013-10-06 06:57:00,52.5,45.0,29.72,WNW,292,0.0,1.0,76,0.00,,,0.00,Rainwise IP-100,2013-10-06 10:57:00,
2013-10-06 07:02:00,52.5,45.0,29.72,North,360,0.0,2.0,76,0.00,,,0.00,Rainwise IP-100,2013-10-06 11:02:00,
2013-10-06 07:07:00,52.5,45.0,29.72,WNW,292,1.4,4.0,76,0.00,,,0.00,Rainwise IP-100,2013-10-06 11:07:00,
2013-10-06 07:12:00,52.6,45.0,29.72,WNW,292,0.0,1.0,76,0.00,,,0.00,Rainwise IP-100,2013-10-06 11:12:00,
2013-10-06 07:17:00,52.5,46.0,29.73,WNW,292,0.0,2.0,77,0.00,,,0.00,Rainwise IP-100,2013-10-06 11:17:00,
2013-10-06 07:22:00,52.4,45.0,29.73,WNW,292,1.6,2.0,77,0.00,,,0.00,Rainwise IP-100,2013-10-06 11:22:00,
2013-10-06 07:27:00,52.5,46.0,29.72,WSW,247,0.0,2.0,78,0.00,,,0.00,Rainwise IP-100,2013-10-06 11:27:00,
2013-10-06 07:32:00,52.5,46.0,29.72,NNW,337,3.3,3.3,78,0.00,,,0.00,Rainwise IP-100,2013-10-06 11:32:00,
2013-10-06 07:37:00,52.8,45.0,29.73,SSE,157,0.0,5.0,76,0.00,,,0.00,Rainwise IP-100,2013-10-06 11:37:00,
2013-10-06 07:42:00,53.1,44.0,29.73,WSW,247,0.0,3.0,73,0.00,,,0.00,Rainwise IP-100,2013-10-06 11:42:00,
2013-10-06 07:48:00,53.3,44.0,29.73,WSW,247,0.0,2.0,73,0.00,,,0.00,Rainwise IP-100,2013-10-06 11:48:00,
2013-10-06 07:53:00,53.4,45.0,29.74,WSW,247,1.2,2.0,73,0.00,,,0.00,Rainwise IP-100,2013-10-06 11:53:00,
2013-10-06 07:58:00,53.5,45.0,29.74,WSW,247,1.6,1.6,72,0.00,,,0.00,Rainwise IP-100,2013-10-06 11:58:00,
2013-10-06 08:03:00,53.7,44.0,29.74,South,180,4.9,5.0,70,0.00,,,0.00,Rainwise IP-100,2013-10-06 12:03:00,
2013-10-06 08:08:00,54.1,43.0,29.75,SSW,202,1.2,5.0,66,0.00,,,0.00,Rainwise IP-100,2013-10-06 12:08:00,
2013-10-06 08:13:00,54.4,42.0,29.75,South,180,3.0,4.0,63,0.00,,,0.00,Rainwise IP-100,2013-10-06 12:13:00,
2013-10-06 08:18:00,54.6,42.0,29.75,SSW,202,2.1,3.0,62,0.00,,,0.00,Rainwise IP-100,2013-10-06 12:18:00,
2013-10-06 08:23:00,54.6,42.0,29.75,SSW,202,2.1,2.1,62,0.00,,,0.00,Rainwise IP-100,2013-10-06 12:23:00,
2013-10-06 08:28:00,54.6,42.0,29.75,SW,225,3.5,4.0,62,0.00,,,0.00,Rainwise IP-100,2013-10-06 12:28:00,
2013-10-06 08:33:00,54.6,42.0,29.75,SW,225,2.3,8.0,62,0.00,,,0.00,Rainwise IP-100,2013-10-06 12:33:00,
2013-10-06 08:38:00,54.5,42.0,29.75,ESE,112,4.9,5.0,62,0.00,,,0.00,Rainwise IP-100,2013-10-06 12:38:00,
2013-10-06 08:43:00,54.6,42.0,29.75,SW,225,0.0,6.0,62,0.00,,,0.00,Rainwise IP-100,2013-10-06 12:43:00,
2013-10-06 08:48:00,54.6,42.0,29.75,WSW,247,2.3,6.0,62,0.00,,,0.00,Rainwise IP-100,2013-10-06 12:48:00,
2013-10-06 08:53:00,54.5,41.0,29.76,SSE,157,4.9,5.0,61,0.00,,,0.00,Rainwise IP-100,2013-10-06 12:53:00,
2013-10-06 08:58:00,54.5,41.0,29.75,SW,225,5.8,6.0,61,0.00,,,0.00,Rainwise IP-100,2013-10-06 12:58:00,
2013-10-06 09:04:00,54.4,41.0,29.76,WSW,247,4.0,11.0,61,0.00,,,0.00,Rainwise IP-100,2013-10-06 13:04:00,
2013-10-06 09:09:00,54.1,41.0,29.76,SSE,157,0.0,5.0,63,0.00,,,0.00,Rainwise IP-100,2013-10-06 13:09:00,
2013-10-06 09:14:00,53.8,41.0,29.76,NNW,337,1.2,9.0,64,0.00,,,0.00,Rainwise IP-100,2013-10-06 13:14:00,
2013-10-06 09:19:00,53.6,42.0,29.76,WSW,247,7.5,7.5,65,0.00,,,0.00,Rainwise IP-100,2013-10-06 13:19:00,
2013-10-06 09:24:00,53.4,42.0,29.76,WNW,292,0.0,9.0,66,0.00,,,0.00,Rainwise IP-100,2013-10-06 13:24:00,
2013-10-06 09:29:00,53.2,42.0,29.76,NE,45,7.2,10.0,67,0.00,,,0.00,Rainwise IP-100,2013-10-06 13:29:00,
2013-10-06 09:34:00,52.8,42.0,29.77,West,270,2.6,9.0,68,0.00,,,0.00,Rainwise IP-100,2013-10-06 13:34:00,
2013-10-06 09:39:00,52.7,42.0,29.77,NNW,337,0.0,6.0,68,0.00,,,0.00,Rainwise IP-100,2013-10-06 13:39:00,
2013-10-06 09:44:00,52.7,42.0,29.77,SSW,202,2.3,4.0,68,0.00,,,0.00,Rainwise IP-100,2013-10-06 13:44:00,
2013-10-06 09:49:00,52.7,42.0,29.76,WSW,247,3.3,7.0,68,0.00,,,0.00,Rainwise IP-100,2013-10-06 13:49:00,
2013-10-06 09:54:00,52.7,42.0,29.76,ENE,67,0.0,6.0,68,0.00,,,0.00,Rainwise IP-100,2013-10-06 13:54:00,
2013-10-06 09:59:00,52.7,42.0,29.76,WSW,247,3.3,6.0,68,0.00,,,0.00,Rainwise IP-100,2013-10-06 13:59:00,
2013-10-06 10:04:00,52.8,42.0,29.76,SSW,202,6.3,11.0,68,0.00,,,0.00,Rainwise IP-100,2013-10-06 14:04:00,
2013-10-06 10:09:00,52.3,42.0,29.77,SSW,202,5.8,12.0,68,0.00,,,0.00,Rainwise IP-100,2013-10-06 14:09:00,
2013-10-06 10:14:00,51.5,43.0,29.77,ESE,112,5.1,9.0,71,0.00,,,0.00,Rainwise IP-100,2013-10-06 14:14:00,
2013-10-06 10:20:00,50.8,42.0,29.77,ESE,112,4.0,6.0,73,0.00,,,0.00,Rainwise IP-100,2013-10-06 14:20:00,
2013-10-06 10:25:00,50.6,43.0,29.77,South,180,1.6,6.0,75,0.00,,,0.00,Rainwise IP-100,2013-10-06 14:25:00,
2013-10-06 10:30:00,50.4,43.0,29.77,South,180,2.1,6.0,76,0.00,,,0.00,Rainwise IP-100,2013-10-06 14:30:00,
2013-10-06 10:35:00,50.5,43.0,29.77,SSW,202,3.0,8.0,76,0.00,,,0.00,Rainwise IP-100,2013-10-06 14:35:00,
2013-10-06 10:40:00,50.6,43.0,29.77,South,180,3.7,9.0,75,0.00,,,0.00,Rainwise IP-100,2013-10-06 14:40:00,
2013-10-06 10:45:00,50.6,43.0,29.77,West,270,1.6,7.0,75,0.00,,,0.00,Rainwise IP-100,2013-10-06 14:45:00,
2013-10-06 10:50:00,50.7,43.0,29.77,SW,225,4.4,8.0,75,0.00,,,0.00,Rainwise IP-100,2013-10-06 14:50:00,
2013-10-06 10:55:00,50.7,43.0,29.77,SSE,157,4.2,12.0,75,0.00,,,0.00,Rainwise IP-100,2013-10-06 14:55:00,
2013-10-06 11:00:00,50.7,43.0,29.77,South,180,2.3,4.0,75,0.00,,,0.00,Rainwise IP-100,2013-10-06 15:00:00,
2013-10-06 11:05:00,50.7,43.0,29.77,SE,135,2.6,5.0,75,0.00,,,0.00,Rainwise IP-100,2013-10-06 15:05:00,
2013-10-06 11:10:00,50.7,43.0,29.77,SSW,202,2.6,7.0,75,0.00,,,0.00,Rainwise IP-100,2013-10-06 15:10:00,
2013-10-06 11:15:00,50.7,43.0,29.78,NNW,337,1.9,5.0,75,0.00,,,0.00,Rainwise IP-100,2013-10-06 15:15:00,
2013-10-06 11:20:00,50.7,43.0,29.77,SSE,157,3.7,6.0,75,0.00,,,0.00,Rainwise IP-100,2013-10-06 15:20:00,
2013-10-06 11:25:00,50.6,43.0,29.78,SSE,157,2.3,5.0,76,0.00,,,0.00,Rainwise IP-100,2013-10-06 15:25:00,
2013-10-06 11:30:00,50.5,43.0,29.77,NE,45,2.3,6.0,76,0.00,,,0.00,Rainwise IP-100,2013-10-06 15:30:00,
2013-10-06 11:36:00,50.5,43.0,29.77,East,90,4.2,9.0,76,0.00,,,0.00,Rainwise IP-100,2013-10-06 15:36:00,
2013-10-06 11:41:00,50.5,43.0,29.77,East,90,9.1,9.1,76,0.00,,,0.00,Rainwise IP-100,2013-10-06 15:41:00,
2013-10-06 11:46:00,50.5,43.0,29.77,SSE,157,0.0,10.0,76,0.00,,,0.00,Rainwise IP-100,2013-10-06 15:46:00,
2013-10-06 11:51:00,50.6,43.0,29.77,NNW,337,1.2,7.0,76,0.00,,,0.00,Rainwise IP-100,2013-10-06 15:51:00,
2013-10-06 11:56:00,50.6,43.0,29.77,East,90,3.5,8.0,76,0.00,,,0.00,Rainwise IP-100,2013-10-06 15:56:00,
2013-10-06 12:01:00,50.7,43.0,29.77,ENE,67,5.1,8.0,75,0.00,,,0.00,Rainwise IP-100,2013-10-06 16:01:00,
2013-10-06 12:06:00,50.7,43.0,29.77,ENE,67,3.0,8.0,75,0.00,,,0.00,Rainwise IP-100,2013-10-06 16:06:00,
2013-10-06 12:11:00,50.7,43.0,29.77,East,90,0.0,6.0,75,0.00,,,0.00,Rainwise IP-100,2013-10-06 16:11:00,
2013-10-06 12:16:00,50.7,43.0,29.77,WSW,247,2.1,6.0,75,0.00,,,0.00,Rainwise IP-100,2013-10-06 16:16:00,
2013-10-06 12:21:00,50.7,43.0,29.77,ENE,67,0.0,6.0,75,0.00,,,0.00,Rainwise IP-100,2013-10-06 16:21:00,
2013-10-06 12:26:00,50.7,43.0,29.77,NNE,22,6.3,6.3,76,0.00,,,0.00,Rainwise IP-100,2013-10-06 16:26:00,
2013-10-06 12:31:00,50.7,43.0,29.77,NE,45,2.8,6.0,76,0.00,,,0.00,Rainwise IP-100,2013-10-06 16:31:00,
2013-10-06 12:36:00,50.5,43.0,29.77,SE,135,2.1,7.0,76,0.00,,,0.00,Rainwise IP-100,2013-10-06 16:36:00,
2013-10-06 12:41:00,50.3,43.0,29.77,ENE,67,7.2,7.2,77,0.00,,,0.00,Rainwise IP-100,2013-10-06 16:41:00,
2013-10-06 12:46:00,50.1,43.0,29.76,East,90,0.0,7.0,79,0.00,,,0.00,Rainwise IP-100,2013-10-06 16:46:00,
2013-10-06 12:52:00,49.9,44.0,29.76,SE,135,4.7,4.7,80,0.00,,,0.00,Rainwise IP-100,2013-10-06 16:52:00,
2013-10-06 12:57:00,50.0,44.0,29.76,East,90,0.0,8.0,80,0.00,,,0.00,Rainwise IP-100,2013-10-06 16:57:00,
2013-10-06 13:02:00,50.0,44.0,29.76,SSW,202,5.4,6.0,80,0.00,,,0.00,Rainwise IP-100,2013-10-06 17:02:00,
2013-10-06 13:07:00,50.0,44.0,29.76,NNE,22,2.1,7.0,80,0.00,,,0.00,Rainwise IP-100,2013-10-06 17:07:00,
2013-10-06 13:12:00,50.1,44.0,29.75,SW,225,1.9,6.0,80,0.00,,,0.00,Rainwise IP-100,2013-10-06 17:12:00,
2013-10-06 13:17:00,50.0,44.0,29.75,SSW,202,3.0,3.0,80,0.00,,,0.00,Rainwise IP-100,2013-10-06 17:17:00,
2013-10-06 13:22:00,49.8,44.0,29.76,ESE,112,0.0,7.0,81,0.00,,,0.00,Rainwise IP-100,2013-10-06 17:22:00,
2013-10-06 13:27:00,49.5,45.0,29.76,WSW,247,0.0,4.0,83,0.00,,,0.00,Rainwise IP-100,2013-10-06 17:27:00,
2013-10-06 13:32:00,49.3,44.0,29.75,East,90,0.0,3.0,84,0.00,,,0.00,Rainwise IP-100,2013-10-06 17:32:00,
2013-10-06 13:37:00,49.1,45.0,29.75,SSW,202,0.0,4.0,85,0.00,,,0.00,Rainwise IP-100,2013-10-06 17:37:00,
2013-10-06 13:42:00,48.9,45.0,29.75,WSW,247,1.9,2.0,86,0.00,,,0.00,Rainwise IP-100,2013-10-06 17:42:00,
2013-10-06 13:47:00,48.9,45.0,29.75,SSW,202,0.0,4.0,87,0.00,,,0.00,Rainwise IP-100,2013-10-06 17:47:00,
2013-10-06 13:52:00,48.8,46.0,29.75,East,90,1.4,3.0,88,0.00,,,0.00,Rainwise IP-100,2013-10-06 17:52:00,
2013-10-06 13:57:00,48.6,46.0,29.75,ESE,112,0.0,3.0,88,0.00,,,0.00,Rainwise IP-100,2013-10-06 17:57:00,
2013-10-06 14:02:00,48.6,46.0,29.75,ESE,112,0.0,1.0,89,0.00,,,0.00,Rainwise IP-100,2013-10-06 18:02:00,
2013-10-06 14:08:00,48.6,46.0,29.75,SE,135,0.0,2.0,89,0.00,,,0.00,Rainwise IP-100,2013-10-06 18:08:00,
2013-10-06 14:13:00,48.5,46.0,29.75,East,90,2.6,4.0,89,0.06,,,0.01,Rainwise IP-100,2013-10-06 18:13:00,
2013-10-06 14:18:00,48.5,47.0,29.74,NE,45,1.2,3.0,91,0.06,,,0.01,Rainwise IP-100,2013-10-06 18:18:00,
2013-10-06 14:23:00,48.5,47.0,29.74,ESE,112,1.4,4.0,91,0.06,,,0.02,Rainwise IP-100,2013-10-06 18:23:00,
2013-10-06 14:28:00,48.3,46.0,29.74,ESE,112,0.0,2.0,91,0.12,,,0.03,Rainwise IP-100,2013-10-06 18:28:00,
2013-10-06 14:33:00,48.2,46.0,29.74,East,90,0.0,3.0,92,0.18,,,0.05,Rainwise IP-100,2013-10-06 18:33:00,
2013-10-06 14:38:00,48.2,46.0,29.74,NE,45,1.2,4.0,92,0.18,,,0.06,Rainwise IP-100,2013-10-06 18:38:00,
2013-10-06 14:43:00,48.2,46.0,29.74,ESE,112,1.2,4.0,92,0.06,,,0.06,Rainwise IP-100,2013-10-06 18:43:00,
2013-10-06 14:48:00,48.2,47.0,29.74,South,180,0.0,2.0,93,0.00,,,0.06,Rainwise IP-100,2013-10-06 18:48:00,
2013-10-06 14:53:00,48.2,47.0,29.74,WSW,247,2.8,0.0,93,0.00,,,0.06,Rainwise IP-100,2013-10-06 18:53:00,
2013-10-06 14:58:00,48.2,47.0,29.74,WSW,247,0.0,4.0,93,0.00,,,0.06,Rainwise IP-100,2013-10-06 18:58:00,
2013-10-06 15:03:00,48.3,46.0,29.75,ESE,112,1.2,2.0,92,0.06,,,0.07,Rainwise IP-100,2013-10-06 19:03:00,
2013-10-06 15:08:00,48.3,46.0,29.74,ESE,112,2.6,3.0,92,0.06,,,0.07,Rainwise IP-100,2013-10-06 19:08:00,
2013-10-06 15:13:00,48.2,46.0,29.74,East,90,1.9,6.0,92,0.06,,,0.09,Rainwise IP-100,2013-10-06 19:13:00,
2013-10-06 15:18:00,48.2,46.0,29.74,South,180,1.9,5.0,92,0.18,,,0.10,Rainwise IP-100,2013-10-06 19:18:00,
2013-10-06 15:24:00,48.2,46.0,29.74,SW,225,2.3,5.0,92,0.12,,,0.10,Rainwise IP-100,2013-10-06 19:24:00,
2013-10-06 15:29:00,48.2,47.0,29.74,SSE,157,3.0,3.0,93,0.06,,,0.11,Rainwise IP-100,2013-10-06 19:29:00,
2013-10-06 15:34:00,48.2,47.0,29.74,SE,135,0.0,5.0,93,0.06,,,0.11,Rainwise IP-100,2013-10-06 19:34:00,
2013-10-06 15:39:00,48.2,47.0,29.74,SSE,157,0.0,4.0,93,0.18,,,0.14,Rainwise IP-100,2013-10-06 19:39:00,
2013-10-06 15:44:00,48.2,47.0,29.73,WNW,292,1.2,5.0,93,0.30,,,0.16,Rainwise IP-100,2013-10-06 19:44:00,
2013-10-06 15:49:00,48.1,47.0,29.73,SW,225,3.3,3.3,94,0.18,,,0.17,Rainwise IP-100,2013-10-06 19:49:00,
2013-10-06 15:54:00,48.1,47.0,29.73,SSE,157,1.9,4.0,94,0.06,,,0.17,Rainwise IP-100,2013-10-06 19:54:00,
2013-10-06 15:59:00,48.2,47.0,29.73,South,180,0.0,2.0,95,0.00,,,0.17,Rainwise IP-100,2013-10-06 19:59:00,
2013-10-06 16:04:00,48.2,47.0,29.73,ENE,67,0.0,2.0,95,0.00,,,0.17,Rainwise IP-100,2013-10-06 20:04:00,
2013-10-06 16:09:00,48.2,47.0,29.73,ESE,112,0.0,2.0,95,0.00,,,0.17,Rainwise IP-100,2013-10-06 20:09:00,
2013-10-06 16:14:00,48.2,47.0,29.73,East,90,0.0,3.0,95,0.00,,,0.17,Rainwise IP-100,2013-10-06 20:14:00,
2013-10-06 16:19:00,48.2,47.0,29.73,ESE,112,0.0,1.0,95,0.00,,,0.17,Rainwise IP-100,2013-10-06 20:19:00,
2013-10-06 16:24:00,48.3,47.0,29.73,NNW,337,0.0,2.0,95,0.00,,,0.17,Rainwise IP-100,2013-10-06 20:24:00,
2013-10-06 16:29:00,48.3,47.0,29.73,NNW,337,0.0,1.0,96,0.00,,,0.17,Rainwise IP-100,2013-10-06 20:29:00,
2013-10-06 16:34:00,48.3,47.0,29.73,WSW,247,0.0,2.0,96,0.00,,,0.17,Rainwise IP-100,2013-10-06 20:34:00,
2013-10-06 16:40:00,48.4,47.0,29.72,WSW,247,0.0,0.0,96,0.00,,,0.17,Rainwise IP-100,2013-10-06 20:40:00,
2013-10-06 16:45:00,48.5,48.0,29.72,WSW,247,0.0,0.0,96,0.00,,,0.17,Rainwise IP-100,2013-10-06 20:45:00,
2013-10-06 16:50:00,48.5,47.0,29.72,ESE,112,0.0,2.0,95,0.00,,,0.17,Rainwise IP-100,2013-10-06 20:50:00,
2013-10-06 16:55:00,48.6,47.0,29.72,SE,135,1.6,2.0,95,0.00,,,0.17,Rainwise IP-100,2013-10-06 20:55:00,
2013-10-06 17:00:00,48.6,47.0,29.72,SSE,157,0.0,1.0,95,0.00,,,0.17,Rainwise IP-100,2013-10-06 21:00:00,
2013-10-06 17:05:00,48.7,47.0,29.72,ESE,112,0.0,3.0,95,0.00,,,0.17,Rainwise IP-100,2013-10-06 21:05:00,
2013-10-06 17:10:00,48.7,47.0,29.73,ESE,112,0.0,1.0,95,0.00,,,0.17,Rainwise IP-100,2013-10-06 21:10:00,
2013-10-06 17:15:00,48.8,47.0,29.72,SSW,202,0.0,2.0,95,0.00,,,0.17,Rainwise IP-100,2013-10-06 21:15:00,
2013-10-06 17:20:00,48.9,47.0,29.72,SE,135,0.0,3.0,95,0.00,,,0.17,Rainwise IP-100,2013-10-06 21:20:00,
2013-10-06 17:25:00,48.9,47.0,29.72,ESE,112,0.0,2.0,95,0.00,,,0.17,Rainwise IP-100,2013-10-06 21:25:00,
2013-10-06 17:30:00,49.0,47.0,29.73,SW,225,0.0,2.0,95,0.00,,,0.17,Rainwise IP-100,2013-10-06 21:30:00,
2013-10-06 17:35:00,49.1,47.0,29.72,SW,225,1.2,4.0,95,0.00,,,0.17,Rainwise IP-100,2013-10-06 21:35:00,
2013-10-06 17:40:00,49.1,47.0,29.72,SSW,202,0.0,3.0,95,0.00,,,0.17,Rainwise IP-100,2013-10-06 21:40:00,
2013-10-06 17:45:00,49.2,47.0,29.73,NE,45,1.4,4.0,95,0.00,,,0.17,Rainwise IP-100,2013-10-06 21:45:00,
2013-10-06 17:50:00,49.2,47.0,29.72,SE,135,0.0,3.0,95,0.00,,,0.17,Rainwise IP-100,2013-10-06 21:50:00,
2013-10-06 17:56:00,49.2,47.0,29.72,SSE,157,2.3,4.0,95,0.00,,,0.17,Rainwise IP-100,2013-10-06 21:56:00,
2013-10-06 18:01:00,49.2,47.0,29.72,SE,135,0.0,3.0,95,0.00,,,0.17,Rainwise IP-100,2013-10-06 22:01:00,
2013-10-06 18:06:00,49.2,47.0,29.72,SE,135,1.2,1.2,95,0.00,,,0.17,Rainwise IP-100,2013-10-06 22:06:00,
2013-10-06 18:11:00,49.3,47.0,29.72,SE,135,0.0,1.0,95,0.00,,,0.17,Rainwise IP-100,2013-10-06 22:11:00,
2013-10-06 18:16:00,49.3,47.0,29.73,SE,135,0.0,0.0,95,0.00,,,0.17,Rainwise IP-100,2013-10-06 22:16:00,
2013-10-06 18:21:00,49.3,47.0,29.72,SE,135,0.0,0.0,95,0.00,,,0.17,Rainwise IP-100,2013-10-06 22:21:00,
2013-10-06 18:26:00,49.3,47.0,29.73,WSW,247,0.0,1.0,95,0.00,,,0.17,Rainwise IP-100,2013-10-06 22:26:00,
2013-10-06 18:31:00,49.3,47.0,29.72,WNW,292,0.0,2.0,95,0.00,,,0.17,Rainwise IP-100,2013-10-06 22:31:00,
2013-10-06 18:36:00,49.4,47.0,29.73,SE,135,0.0,1.0,95,0.00,,,0.17,Rainwise IP-100,2013-10-06 22:36:00,
2013-10-06 18:41:00,49.5,48.0,29.72,SE,135,1.9,0.0,95,0.00,,,0.17,Rainwise IP-100,2013-10-06 22:41:00,
2013-10-06 18:46:00,49.4,48.0,29.72,SE,135,1.9,2.0,96,0.00,,,0.17,Rainwise IP-100,2013-10-06 22:46:00,
2013-10-06 18:51:00,49.5,48.0,29.72,SE,135,0.0,2.0,95,0.00,,,0.17,Rainwise IP-100,2013-10-06 22:51:00,
2013-10-06 18:56:00,49.5,48.0,29.72,SE,135,0.0,0.0,95,0.00,,,0.17,Rainwise IP-100,2013-10-06 22:56:00,
2013-10-06 19:01:00,49.5,49.0,29.72,SE,135,0.0,0.0,96,0.00,,,0.17,Rainwise IP-100,2013-10-06 23:01:00,
2013-10-06 19:06:00,49.4,48.0,29.72,SE,135,0.0,0.0,96,0.00,,,0.17,Rainwise IP-100,2013-10-06 23:06:00,
2013-10-06 19:12:00,49.4,48.0,29.72,SE,135,0.0,0.0,96,0.00,,,0.17,Rainwise IP-100,2013-10-06 23:12:00,
2013-10-06 19:17:00,49.4,48.0,29.72,SE,135,0.0,0.0,96,0.00,,,0.17,Rainwise IP-100,2013-10-06 23:17:00,
2013-10-06 19:22:00,49.4,48.0,29.72,SE,135,0.0,0.0,96,0.00,,,0.17,Rainwise IP-100,2013-10-06 23:22:00,
2013-10-06 19:27:00,49.3,48.0,29.72,SE,135,0.0,0.0,97,0.00,,,0.17,Rainwise IP-100,2013-10-06 23:27:00,
2013-10-06 19:32:00,49.3,48.0,29.72,SE,135,0.0,0.0,97,0.00,,,0.17,Rainwise IP-100,2013-10-06 23:32:00,
2013-10-06 19:37:00,49.4,48.0,29.72,SE,135,0.0,0.0,97,0.00,,,0.17,Rainwise IP-100,2013-10-06 23:37:00,
2013-10-06 19:42:00,49.4,48.0,29.72,SE,135,0.0,0.0,97,0.00,,,0.17,Rainwise IP-100,2013-10-06 23:42:00,
2013-10-06 19:47:00,49.3,48.0,29.72,SE,135,0.0,0.0,97,0.00,,,0.17,Rainwise IP-100,2013-10-06 23:47:00,
2013-10-06 19:52:00,49.4,48.0,29.72,SE,135,0.0,0.0,97,0.00,,,0.17,Rainwise IP-100,2013-10-06 23:52:00,
2013-10-06 19:57:00,49.5,49.0,29.72,SE,135,0.0,0.0,97,0.00,,,0.17,Rainwise IP-100,2013-10-06 23:57:00,
2013-10-06 20:02:00,49.6,49.0,29.72,SSE,157,0.0,4.0,97,0.00,,,0.17,Rainwise IP-100,2013-10-07 00:02:00,
2013-10-06 20:07:00,49.7,49.0,29.72,WSW,247,2.3,2.3,96,0.00,,,0.17,Rainwise IP-100,2013-10-07 00:07:00,
2013-10-06 20:12:00,49.8,49.0,29.72,East,90,0.0,4.0,96,0.00,,,0.17,Rainwise IP-100,2013-10-07 00:12:00,
2013-10-06 20:17:00,49.9,49.0,29.72,WSW,247,0.0,3.0,96,0.00,,,0.17,Rainwise IP-100,2013-10-07 00:17:00,
2013-10-06 20:22:00,49.9,49.0,29.72,NNE,22,0.0,3.0,96,0.00,,,0.17,Rainwise IP-100,2013-10-07 00:22:00,
2013-10-06 20:28:00,49.9,49.0,29.71,SW,225,2.1,2.1,96,0.00,,,0.17,Rainwise IP-100,2013-10-07 00:28:00,
2013-10-06 20:33:00,50.0,49.0,29.72,East,90,2.8,3.0,96,0.00,,,0.17,Rainwise IP-100,2013-10-07 00:33:00,
2013-10-06 20:38:00,50.0,49.0,29.72,South,180,0.0,3.0,96,0.00,,,0.17,Rainwise IP-100,2013-10-07 00:38:00,
2013-10-06 20:43:00,49.9,49.0,29.71,South,180,1.2,3.0,96,0.00,,,0.17,Rainwise IP-100,2013-10-07 00:43:00,
2013-10-06 20:48:00,49.9,49.0,29.71,South,180,1.2,2.0,96,0.00,,,0.17,Rainwise IP-100,2013-10-07 00:48:00,
2013-10-06 20:53:00,49.9,49.0,29.71,WNW,292,3.3,3.3,96,0.00,,,0.17,Rainwise IP-100,2013-10-07 00:53:00,
2013-10-06 20:58:00,50.0,49.0,29.71,South,180,0.0,4.0,96,0.00,,,0.17,Rainwise IP-100,2013-10-07 00:58:00,
2013-10-06 21:03:00,50.0,49.0,29.71,ESE,112,0.0,4.0,96,0.00,,,0.17,Rainwise IP-100,2013-10-07 01:03:00,
2013-10-06 21:08:00,50.0,49.0,29.71,South,180,0.0,4.0,96,0.00,,,0.17,Rainwise IP-100,2013-10-07 01:08:00,
2013-10-06 21:13:00,50.0,49.0,29.71,SE,135,1.2,2.0,96,0.00,,,0.17,Rainwise IP-100,2013-10-07 01:13:00,
2013-10-06 21:18:00,50.0,49.0,29.71,ESE,112,0.0,4.0,96,0.00,,,0.17,Rainwise IP-100,2013-10-07 01:18:00,
2013-10-06 21:23:00,50.0,49.0,29.71,South,180,1.4,1.4,96,0.00,,,0.17,Rainwise IP-100,2013-10-07 01:23:00,
2013-10-06 21:28:00,50.0,49.0,29.71,WSW,247,0.0,2.0,96,0.00,,,0.17,Rainwise IP-100,2013-10-07 01:28:00,
2013-10-06 21:33:00,50.0,49.0,29.71,WSW,247,0.0,2.0,96,0.00,,,0.17,Rainwise IP-100,2013-10-07 01:33:00,
2013-10-06 21:38:00,50.0,49.0,29.71,WSW,247,0.0,1.0,96,0.00,,,0.17,Rainwise IP-100,2013-10-07 01:38:00,
2013-10-06 21:44:00,50.1,49.0,29.70,ESE,112,0.0,1.0,96,0.00,,,0.17,Rainwise IP-100,2013-10-07 01:44:00,
2013-10-06 21:49:00,50.1,49.0,29.70,WSW,247,0.0,1.0,97,0.00,,,0.17,Rainwise IP-100,2013-10-07 01:49:00,
2013-10-06 21:54:00,50.1,49.0,29.70,WSW,247,0.0,1.0,97,0.00,,,0.17,Rainwise IP-100,2013-10-07 01:54:00,
2013-10-06 21:59:00,50.1,49.0,29.71,WSW,247,0.0,1.0,97,0.00,,,0.17,Rainwise IP-100,2013-10-07 01:59:00,
2013-10-06 22:04:00,50.2,49.0,29.70,WSW,247,0.0,0.0,97,0.00,,,0.17,Rainwise IP-100,2013-10-07 02:04:00,
2013-10-06 22:09:00,50.2,49.0,29.70,SE,135,0.0,2.0,97,0.00,,,0.17,Rainwise IP-100,2013-10-07 02:09:00,
2013-10-06 22:14:00,50.2,49.0,29.70,ENE,67,0.0,1.0,97,0.00,,,0.17,Rainwise IP-100,2013-10-07 02:14:00,
2013-10-06 22:19:00,50.3,49.0,29.70,ENE,67,0.0,0.0,97,0.00,,,0.17,Rainwise IP-100,2013-10-07 02:19:00,
2013-10-06 22:24:00,50.2,49.0,29.70,ENE,67,0.0,0.0,97,0.00,,,0.17,Rainwise IP-100,2013-10-07 02:24:00,
2013-10-06 22:29:00,50.2,49.0,29.70,ENE,67,0.0,0.0,98,0.00,,,0.17,Rainwise IP-100,2013-10-07 02:29:00,
2013-10-06 22:34:00,50.2,49.0,29.70,ENE,67,0.0,0.0,98,0.00,,,0.17,Rainwise IP-100,2013-10-07 02:34:00,
2013-10-06 22:39:00,50.2,49.0,29.70,ENE,67,0.0,0.0,98,0.00,,,0.17,Rainwise IP-100,2013-10-07 02:39:00,
2013-10-06 22:44:00,50.3,49.0,29.70,NNE,22,0.0,0.0,98,0.00,,,0.17,Rainwise IP-100,2013-10-07 02:44:00,
2013-10-06 22:49:00,50.3,49.0,29.70,SW,225,2.3,0.0,98,0.00,,,0.17,Rainwise IP-100,2013-10-07 02:49:00,
2013-10-06 22:54:00,50.3,49.0,29.70,SW,225,0.0,2.0,98,0.00,,,0.17,Rainwise IP-100,2013-10-07 02:54:00,
2013-10-06 23:00:00,50.4,50.0,29.69,SW,225,1.6,0.0,98,0.00,,,0.17,Rainwise IP-100,2013-10-07 03:00:00,
2013-10-06 23:05:00,50.6,50.0,29.69,NNW,337,0.0,4.0,97,0.00,,,0.17,Rainwise IP-100,2013-10-07 03:05:00,
2013-10-06 23:10:00,50.6,50.0,29.69,NNW,337,0.0,0.0,97,0.00,,,0.17,Rainwise IP-100,2013-10-07 03:10:00,
2013-10-06 23:15:00,50.7,50.0,29.69,WSW,247,0.0,2.0,98,0.00,,,0.17,Rainwise IP-100,2013-10-07 03:15:00,
2013-10-06 23:20:00,50.7,50.0,29.69,WSW,247,0.0,2.0,97,0.00,,,0.17,Rainwise IP-100,2013-10-07 03:20:00,
2013-10-06 23:25:00,50.8,50.0,29.69,WSW,247,0.0,0.0,97,0.00,,,0.17,Rainwise IP-100,2013-10-07 03:25:00,
2013-10-06 23:30:00,50.8,50.0,29.69,WSW,247,1.4,1.4,97,0.00,,,0.17,Rainwise IP-100,2013-10-07 03:30:00,
2013-10-06 23:35:00,50.8,50.0,29.69,WSW,247,0.0,1.0,98,0.00,,,0.17,Rainwise IP-100,2013-10-07 03:35:00,
2013-10-06 23:40:00,50.8,50.0,29.68,WSW,247,0.0,2.0,98,0.00,,,0.17,Rainwise IP-100,2013-10-07 03:40:00,
2013-10-06 23:45:00,50.8,50.0,29.68,WSW,247,0.0,2.0,98,0.00,,,0.17,Rainwise IP-100,2013-10-07 03:45:00,
2013-10-06 23:50:00,50.7,50.0,29.68,WSW,247,0.0,2.0,98,0.00,,,0.17,Rainwise IP-100,2013-10-07 03:50:00,
2013-10-06 23:55:00,50.7,50.0,29.68,WSW,247,0.0,1.0,98,0.00,,,0.17,Rainwise IP-100,2013-10-07 03:55:00,